Hourly Weather Bolshoe Azarovo

Today, 17 June, Thursday

Time Temperature Precipitation Wind Pressure Humidity
00:00 +13°C° 0 mm 2 mps 744 mmHg 77%
01:00 +12°C° 0 mm 2 mps 745 mmHg 77%
02:00 +12°C° 0 mm 2 mps 745 mmHg 78%
03:00 +12°C° 0 mm 2 mps 745 mmHg 78%
04:00 +13°C° 0 mm 2 mps 745 mmHg 78%
05:00 +13°C° 0 mm 1 mps 746 mmHg 78%
06:00 +15°C° 0 mm 2 mps 746 mmHg 71%
07:00 +17°C° 0 mm 2 mps 746 mmHg 64%
08:00 +19°C° 0 mm 2 mps 747 mmHg 55%
09:00 +22°C° 0 mm 1 mps 747 mmHg 52%
10:00 +23°C° 0 mm 1 mps 747 mmHg 48%
11:00 +24°C° 0 mm 1 mps 748 mmHg 45%
12:00 +24°C° 0 mm 1 mps 748 mmHg 44%
13:00 +25°C° 0 mm 1 mps 748 mmHg 43%
14:00 +25°C° 0 mm 1 mps 748 mmHg 42%
15:00 +25°C° 0 mm 1 mps 747 mmHg 46%
16:00 +25°C° 0 mm 1 mps 747 mmHg 49%
17:00 +24°C° 0 mm 2 mps 747 mmHg 52%
18:00 +21°C° 0 mm 2 mps 747 mmHg 60%
19:00 +19°C° 0 mm 2 mps 748 mmHg 67%
20:00 +18°C° 0 mm 2 mps 748 mmHg 75%
21:00 +18°C° 0 mm 1 mps 748 mmHg 75%
22:00 +16°C° 0 mm 1 mps 748 mmHg 76%
23:00 +15°C° 0 mm 1 mps 748 mmHg 77%

Tomorrow, 18 June, Friday

Time Temperature Precipitation Wind Pressure Humidity
00:00 +15°C° 0 mm 1 mps 748 mmHg 79%
01:00 +14°C° 0 mm 1 mps 749 mmHg 80%
02:00 +14°C° 0 mm 1 mps 749 mmHg 82%
03:00 +14°C° 0 mm 1 mps 749 mmHg 81%
04:00 +15°C° 0 mm 1 mps 749 mmHg 81%
05:00 +16°C° 0 mm 1 mps 749 mmHg 80%
06:00 +19°C° 0 mm 1 mps 749 mmHg 74%
07:00 +21°C° 0 mm 1 mps 750 mmHg 68%
08:00 +22°C° 0 mm 1 mps 750 mmHg 61%
09:00 +24°C° 0 mm 1 mps 750 mmHg 57%
10:00 +25°C° 0 mm 2 mps 749 mmHg 52%
11:00 +26°C° 0 mm 2 mps 749 mmHg 47%
12:00 +26°C° 0 mm 2 mps 749 mmHg 46%
13:00 +27°C° 0 mm 2 mps 749 mmHg 44%
14:00 +27°C° 0 mm 2 mps 749 mmHg 43%
15:00 +27°C° 0 mm 2 mps 749 mmHg 46%
16:00 +27°C° 0 mm 2 mps 748 mmHg 49%
17:00 +27°C° 0 mm 2 mps 748 mmHg 53%
18:00 +24°C° 0 mm 2 mps 748 mmHg 61%
19:00 +21°C° 0 mm 2 mps 748 mmHg 69%
20:00 +19°C° 0 mm 2 mps 748 mmHg 78%
21:00 +18°C° 0 mm 2 mps 748 mmHg 81%
22:00 +17°C° 0 mm 2 mps 748 mmHg 84%
23:00 +16°C° 0 mm 2 mps 749 mmHg 87%

Day after tomorrow, 19 June, Saturday

Time Temperature Precipitation Wind Pressure Humidity
00:00 +16°C° 0 mm 2 mps 749 mmHg 89%
01:00 +15°C° 0 mm 2 mps 749 mmHg 91%
02:00 +15°C° 0 mm 2 mps 749 mmHg 93%
03:00 +15°C° 0 mm 2 mps 749 mmHg 92%
04:00 +16°C° 0 mm 2 mps 749 mmHg 90%
05:00 +16°C° 0 mm 2 mps 749 mmHg 89%
06:00 +18°C° 0 mm 2 mps 749 mmHg 82%
07:00 +20°C° 0 mm 2 mps 749 mmHg 74%
08:00 +23°C° 0 mm 2 mps 749 mmHg 67%
09:00 +24°C° 0 mm 2 mps 749 mmHg 62%
10:00 +25°C° 0 mm 2 mps 749 mmHg 58%
11:00 +26°C° 0 mm 2 mps 748 mmHg 53%
12:00 +27°C° 0 mm 2 mps 748 mmHg 51%
13:00 +27°C° 0 mm 2 mps 748 mmHg 49%
14:00 +28°C° 0 mm 2 mps 748 mmHg 48%
15:00 +28°C° 0 mm 2 mps 747 mmHg 50%
16:00 +27°C° 0 mm 2 mps 747 mmHg 53%
17:00 +27°C° 0 mm 2 mps 747 mmHg 55%
18:00 +25°C° 0 mm 2 mps 747 mmHg 63%
19:00 +23°C° 0 mm 2 mps 747 mmHg 71%
20:00 +20°C° 0 mm 2 mps 746 mmHg 78%
21:00 +19°C° 0 mm 2 mps 747 mmHg 81%
22:00 +18°C° 0 mm 2 mps 747 mmHg 85%
23:00 +17°C° 0 mm 2 mps 747 mmHg 88%

20 June, Sunday

Time Temperature Precipitation Wind Pressure Humidity
00:00 +16°C° 0 mm 2 mps 747 mmHg 89%
01:00 +16°C° 0 mm 2 mps 747 mmHg 91%
02:00 +15°C° 0 mm 2 mps 747 mmHg 92%
03:00 +16°C° 0 mm 1 mps 747 mmHg 91%
04:00 +16°C° 0 mm 1 mps 747 mmHg 90%
05:00 +18°C° 0 mm 1 mps 747 mmHg 89%
06:00 +20°C° 0 mm 1 mps 747 mmHg 82%
07:00 +22°C° 0 mm 1 mps 747 mmHg 74%
08:00 +24°C° 0 mm 1 mps 747 mmHg 67%
09:00 +25°C° 0 mm 2 mps 747 mmHg 61%
10:00 +26°C° 0 mm 2 mps 747 mmHg 56%
11:00 +27°C° 0 mm 2 mps 746 mmHg 50%
12:00 +28°C° 0 mm 2 mps 746 mmHg 48%
13:00 +28°C° 0 mm 2 mps 746 mmHg 47%
14:00 +29°C° 0 mm 2 mps 746 mmHg 45%
15:00 +29°C° 0 mm 2 mps 745 mmHg 49%
16:00 +29°C° 0 mm 1 mps 745 mmHg 52%
17:00 +28°C° 0 mm 1 mps 745 mmHg 55%
18:00 +26°C° 0 mm 1 mps 745 mmHg 63%
19:00 +25°C° 0 mm 1 mps 745 mmHg 71%
20:00 +23°C° 0 mm 1 mps 745 mmHg 78%
21:00 +22°C° 0 mm 1 mps 745 mmHg 82%
22:00 +20°C° 0 mm 2 mps 745 mmHg 85%
23:00 +19°C° 0 mm 2 mps 745 mmHg 88%

21 June, Monday

Time Temperature Precipitation Wind Pressure Humidity
00:00 +19°C° 0 mm 2 mps 745 mmHg 89%
01:00 +19°C° 0 mm 1 mps 745 mmHg 89%
02:00 +19°C° 0 mm 1 mps 745 mmHg 90%
03:00 +19°C° 0 mm 1 mps 745 mmHg 88%
04:00 +20°C° 0 mm 1 mps 745 mmHg 87%
05:00 +20°C° 0 mm 1 mps 745 mmHg 85%
06:00 +22°C° 0 mm 1 mps 745 mmHg 79%
07:00 +23°C° 0 mm 1 mps 745 mmHg 73%
08:00 +25°C° 0 mm 1 mps 745 mmHg 68%
09:00 +26°C° 0 mm 2 mps 745 mmHg 62%
10:00 +27°C° 0 mm 2 mps 745 mmHg 56%
11:00 +29°C° 0 mm 2 mps 745 mmHg 50%
12:00 +29°C° 0 mm 2 mps 745 mmHg 49%
13:00 +30°C° 0 mm 2 mps 744 mmHg 47%
14:00 +30°C° 0 mm 2 mps 744 mmHg 45%
15:00 +30°C° 0 mm 2 mps 744 mmHg 49%
16:00 +29°C° 0 mm 2 mps 744 mmHg 53%
17:00 +29°C° 0 mm 2 mps 744 mmHg 57%
18:00 +27°C° 0 mm 2 mps 744 mmHg 64%
19:00 +25°C° 0 mm 2 mps 744 mmHg 71%
20:00 +23°C° 0 mm 2 mps 744 mmHg 78%
21:00 +21°C° 0 mm 2 mps 744 mmHg 82%
22:00 +20°C° 0 mm 2 mps 744 mmHg 86%
23:00 +19°C° 0 mm 2 mps 744 mmHg 89%

22 June, Tuesday

Time Temperature Precipitation Wind Pressure Humidity
00:00 +19°C° 0 mm 2 mps 744 mmHg 91%
01:00 +18°C° 0 mm 2 mps 744 mmHg 93%
02:00 +18°C° 0 mm 2 mps 744 mmHg 95%
03:00 +19°C° 0 mm 2 mps 744 mmHg 94%
04:00 +19°C° 0 mm 2 mps 744 mmHg 93%
05:00 +20°C° 0 mm 2 mps 744 mmHg 91%
06:00 +23°C° 0 mm 2 mps 744 mmHg 84%
07:00 +24°C° 0 mm 3 mps 744 mmHg 77%
08:00 +26°C° 0 mm 3 mps 744 mmHg 70%
09:00 +28°C° 0 mm 3 mps 744 mmHg 63%
10:00 +29°C° 0 mm 3 mps 744 mmHg 57%
11:00 +30°C° 0 mm 4 mps 744 mmHg 50%
12:00 +31°C° 0 mm 3 mps 744 mmHg 48%
13:00 +31°C° 0 mm 3 mps 744 mmHg 45%
14:00 +33°C° 0 mm 3 mps 744 mmHg 42%
15:00 +33°C° 0 mm 3 mps 744 mmHg 46%
16:00 +31°C° 0 mm 3 mps 744 mmHg 50%
17:00 +31°C° 0 mm 3 mps 744 mmHg 54%
18:00 +29°C° 0 mm 3 mps 744 mmHg 62%
19:00 +27°C° 0 mm 3 mps 744 mmHg 70%
20:00 +24°C° 0 mm 2 mps 744 mmHg 78%
21:00 +24°C° 0 mm 2 mps 744 mmHg 82%
22:00 +23°C° 0 mm 2 mps 744 mmHg 86%
23:00 +21°C° 0 mm 2 mps 744 mmHg 89%
Show more